Theta_e
323 322 323 323 323 322 321 322 323 322 322 321 321 320 318 319 322 323 324 325 326 325 326 325 325 325 325 324 324 323 323 322 323 323 323 324 326 326 326 326 325 325 325 325 324 324 325 326 326 326 325 324 323 321 319 318 318 318 319 320 320 317 314
324 323 322 322 322 321 321 323 323 322 321 320 320 318 314 313 317 320 321 323 325 325 326 325 325 325 325 325 325 324 323 323 324 323 323 324 325 326 327 326 326 326 326 325 325 324 324 325 325 325 324 322 320 318 316 315 315 316 316 316 316 315 314
324 323 322 323 321 320 321 322 323 322 322 321 320 318 315 313 315 317 318 320 323 323 324 325 325 325 325 325 325 324 324 324 324 324 323 324 325 326 327 326 326 326 326 325 325 325 324 324 324 325 323 321 319 317 315 314 314 314 315 314 314 314 314
322 321 321 321 319 319 320 321 322 321 321 321 320 319 317 315 315 316 317 318 320 320 321 323 324 324 325 326 325 325 324 325 325 324 324 324 324 326 326 326 326 326 326 325 325 325 324 324 324 324 323 320 319 317 314 312 311 311 312 312 313 312 310
321 317 317 318 316 317 318 319 320 319 320 322 322 320 318 316 315 315 317 319 319 319 320 321 322 323 325 326 326 326 325 324 325 325 325 324 324 325 325 325 326 326 326 325 325 325 324 324 324 323 322 320 319 317 314 310 308 307 308 308 309 308 306
320 316 315 315 315 317 317 317 318 319 321 322 321 320 319 317 316 315 316 318 319 320 321 320 320 321 323 325 326 326 325 323 324 324 324 325 325 325 325 325 325 326 326 325 325 325 325 324 323 323 321 320 319 316 313 311 309 307 306 306 306 305 304
321 317 315 316 317 318 316 316 318 319 320 320 318 317 316 315 315 313 314 318 320 321 321 321 319 319 321 324 325 324 324 323 323 323 323 324 325 325 326 325 325 326 325 325 325 325 325 324 323 323 321 320 319 316 314 311 310 308 306 306 306 305 305
323 319 318 318 318 316 315 315 318 319 320 319 319 318 314 310 310 311 313 317 319 320 320 320 319 317 320 323 322 321 322 322 321 321 321 323 324 324 325 325 325 326 325 324 325 325 325 324 323 323 321 320 319 317 315 312 310 308 307 306 306 306 305
325 322 319 319 318 315 314 316 317 319 320 320 320 319 315 310 308 310 313 316 319 319 318 318 317 316 318 321 321 320 321 321 321 320 320 321 323 324 324 324 325 325 325 324 325 325 324 324 323 322 321 320 319 317 315 313 311 309 307 306 306 306 306
325 322 319 319 318 316 315 316 318 319 320 320 320 320 316 311 309 310 312 315 317 318 318 318 317 314 316 319 320 321 321 321 321 321 320 321 323 323 323 323 324 324 324 324 324 324 324 323 323 322 321 320 317 316 314 313 311 309 307 306 306 308 309
325 322 322 323 321 317 316 317 318 319 320 320 320 318 316 312 309 311 313 314 316 317 318 318 316 315 316 318 319 320 321 321 321 320 321 321 322 323 323 323 323 324 324 324 324 324 323 323 322 322 321 318 315 314 311 310 309 308 307 306 307 309 310
325 324 325 325 322 317 316 317 318 319 319 319 320 318 314 309 307 311 314 316 317 318 319 317 314 315 318 318 319 320 320 321 321 321 322 321 322 322 322 322 323 324 324 324 325 323 322 322 321 321 321 317 314 313 310 308 308 308 308 307 308 310 310
325 326 326 322 317 316 317 318 318 319 319 318 319 317 312 307 306 308 311 314 316 320 320 316 312 314 318 319 319 321 321 322 322 322 321 321 321 321 321 322 323 324 325 324 324 323 321 321 321 321 320 316 313 311 309 308 309 309 308 308 308 310 310
326 327 325 318 313 314 317 317 318 319 318 316 316 314 309 306 306 307 308 308 313 319 320 315 311 314 318 320 321 322 322 322 323 321 320 319 319 319 320 322 323 324 324 324 323 322 321 321 321 320 318 316 313 311 310 310 310 310 309 308 308 309 309
328 327 323 318 315 316 318 318 318 318 316 314 312 309 306 305 305 306 305 304 308 315 317 312 310 314 318 320 321 322 322 322 322 319 318 317 317 317 318 320 322 323 324 324 323 322 321 321 320 318 316 314 313 312 311 311 310 310 310 309 309 309 309
327 326 323 321 318 318 319 319 318 316 314 311 308 306 305 305 305 305 305 304 305 309 311 308 308 313 317 318 320 321 321 322 320 317 315 315 315 315 316 319 321 322 323 323 323 322 321 320 318 316 314 313 313 312 312 312 311 310 310 310 310 309 308
326 325 323 322 320 320 321 319 317 316 313 308 306 305 305 305 305 305 305 305 305 306 307 307 308 312 315 316 317 318 319 321 320 316 314 315 315 314 315 318 321 322 322 322 321 320 320 319 318 317 316 315 314 314 313 313 312 311 310 310 310 310 309
326 324 323 321 320 322 322 319 317 315 310 307 306 306 306 307 307 307 306 305 304 305 305 307 309 311 314 315 315 315 315 317 319 317 314 314 314 314 314 316 319 321 320 319 319 318 318 317 317 317 317 317 317 316 315 314 313 312 311 310 310 310 309
325 323 323 322 321 322 321 319 317 314 309 307 308 308 308 309 309 310 310 308 306 304 305 307 309 310 312 313 313 313 311 313 316 316 315 314 314 313 314 314 316 317 317 316 316 315 315 315 315 315 315 316 316 316 316 316 315 314 313 311 310 311 310
324 323 322 323 323 322 320 318 318 315 310 309 310 310 310 311 311 312 313 312 310 309 308 308 308 308 309 310 309 309 308 309 312 315 315 314 313 312 313 314 314 314 315 315 314 314 314 314 314 314 314 314 314 314 315 316 316 316 315 312 311 311 311
324 323 323 323 322 322 321 319 319 316 313 312 312 313 313 313 312 312 313 313 313 313 312 311 310 309 308 308 309 309 309 308 309 312 313 313 312 311 312 313 314 314 314 314 314 314 314 314 313 313 314 313 313 314 314 315 316 316 315 312 311 313 312
324 324 322 320 319 321 321 319 319 317 315 314 313 314 315 315 314 313 313 314 314 314 314 314 313 312 309 309 309 310 311 309 308 310 312 312 313 313 313 313 314 314 314 314 314 314 314 314 314 314 314 314 314 314 314 314 314 314 314 312 312 314 313
323 322 321 319 319 321 321 319 319 318 316 315 314 314 315 316 314 313 313 314 314 314 314 314 314 314 313 311 309 309 311 311 311 312 314 315 315 315 315 314 314 314 314 314 314 314 314 314 315 314 314 314 314 314 315 314 314 314 314 313 313 314 314
321 320 321 321 320 321 321 319 319 318 316 315 315 315 315 316 315 314 313 313 314 314 314 314 314 314 314 313 312 311 311 311 312 312 313 314 314 315 315 315 315 315 315 314 314 314 314 314 315 314 314 314 314 315 315 315 315 315 314 314 314 314 314
321 321 321 321 321 321 321 320 319 318 316 316 316 317 317 317 317 315 314 314 314 314 315 315 315 315 315 315 314 313 312 312 312 311 311 311 312 312 313 314 315 315 314 314 314 314 314 313 314 314 314 314 314 314 314 315 315 314 314 314 314 315 315
321 321 321 322 322 321 321 320 318 318 317 316 317 318 318 318 318 317 317 316 315 316 316 316 316 316 316 316 316 315 314 314 313 313 313 312 312 312 312 312 313 313 313 313 313 313 313 312 312 312 313 313 313 312 313 313 313 314 314 314 314 314 315
320 321 321 321 321 320 320 319 318 318 317 316 316 317 318 318 318 318 318 317 317 317 316 316 316 316 316 316 316 316 316 315 315 314 314 314 314 314 313 313 312 312 312 312 312 312 312 312 312 311 312 312 311 312 312 312 312 313 313 314 314 314 315
319 320 320 320 320 319 319 319 319 319 319 318 317 318 318 318 318 318 318 318 318 318 317 317 317 317 317 316 316 317 317 316 316 315 315 315 314 314 314 314 314 314 314 314 313 313 313 313 313 313 313 313 313 313 313 313 313 313 313 314 314 315 315
315 316 317 318 319 319 319 319 319 319 319 319 319 319 319 319 318 318 319 319 319 319 319 319 319 319 319 318 318 318 318 318 317 317 317 316 315 315 315 314 314 315 315 315 314 315 315 315 315 315 315 315 315 315 315 314 314 315 314 315 314 315 315
311 312 313 315 317 317 317 318 318 318 318 319 319 319 318 318 318 318 319 320 320 320 320 320 320 320 320 320 319 319 319 319 318 318 318 317 317 317 317 316 316 316 316 315 315 315 315 315 315 315 315 315 316 316 316 316 316 316 316 316 316 316 315
308 308 310 312 313 313 314 315 315 316 317 318 318 318 318 318 318 318 319 319 319 319 319 319 319 319 319 319 320 320 319 319 319 319 319 318 318 318 318 318 318 318 317 317 317 316 316 316 316 316 316 316 316 316 317 317 317 316 316 316 316 316 315
307 307 307 308 308 308 309 310 310 311 313 314 315 316 316 316 316 316 317 317 317 317 316 316 316 316 317 318 318 318 319 319 319 319 319 318 318 318 318 318 318 318 318 318 318 318 318 317 317 317 317 317 317 317 317 317 317 316 316 316 316 316 315
307 308 308 308 308 307 307 307 307 307 308 309 310 311 312 313 313 313 313 314 314 315 315 314 314 314 314 315 315 315 316 316 316 316 316 317 317 317 317 317 317 317 317 317 317 317 317 317 317 317 317 317 317 317 317 317 317 316 316 316 316 315 315
305 306 307 308 309 308 308 307 306 307 306 306 306 307 307 307 307 308 308 309 309 310 311 311 311 311 310 310 311 312 312 313 313 313 314 314 314 314 315 315 315 316 316 316 316 316 316 316 316 316 316 315 315 315 315 315 316 316 316 316 315 315 314
301 302 302 303 304 304 304 304 304 304 304 304 304 304 304 304 304 303 303 304 304 304 305 305 306 306 305 305 306 306 307 307 309 310 310 311 312 312 312 313 313 314 315 315 315 315 314 314 314 314 314 313 313 312 312 312 313 314 315 316 315 315 314
299 299 299 299 299 300 300 300 300 301 301 301 301 301 301 300 300 300 300 300 300 300 300 300 300 301 301 301 301 301 301 302 303 304 305 306 307 308 309 309 311 312 313 313 314 314 313 313 312 312 312 312 312 312 311 311 311 312 313 314 314 314 314
298 298 298 298 298 298 298 298 299 299 299 299 299 299 299 299 299 299 299 299 299 299 299 299 299 299 299 299 299 299 299 299 299 299 300 300 301 302 303 303 305 307 309 311 312 313 313 313 312 311 311 312 312 312 311 311 310 310 311 312 313 314 314
Wind_Speed
15 15 15 14 12 11 11 11 10 9 9 8 6 5 4 5 5 4 4 6 7 7 7 7 8 9 9 10 10 10 10 10 10 9 9 9 10 10 11 12 10 6 3 3 5 7 10 15 14 11 12 13 13 13 11 10 9 8 7 7 7 7 7
14 14 15 13 12 11 11 10 9 8 8 7 5 4 3 4 5 5 4 5 6 6 6 6 6 7 8 9 10 10 10 11 11 10 10 10 9 9 10 11 11 9 5 4 5 7 8 13 15 15 17 17 15 13 12 11 11 10 9 9 8 8 8
16 15 13 12 11 11 10 9 8 7 6 4 4 4 4 4 5 6 5 5 5 5 4 4 4 4 5 6 8 9 9 10 11 10 10 10 10 9 10 11 11 11 7 6 8 9 9 10 13 17 19 18 16 15 13 12 11 11 10 9 8 8 7
15 14 13 12 11 11 10 9 7 6 5 4 3 4 4 4 4 6 6 6 5 4 4 4 3 3 3 5 6 7 7 8 9 9 10 10 10 11 11 11 10 10 8 6 7 10 12 11 14 20 20 17 16 15 14 12 10 9 8 7 7 6 5
14 12 12 12 11 11 9 7 6 5 4 3 3 3 3 3 3 4 6 7 6 4 3 4 4 4 4 5 5 5 6 7 7 8 9 9 10 10 10 11 10 9 8 6 6 9 11 10 13 21 22 18 16 14 13 12 11 9 8 7 7 5 5
12 10 10 11 11 10 8 6 5 5 4 4 3 3 2 2 1 2 4 7 6 3 3 3 3 4 5 5 5 6 6 6 7 7 8 8 9 9 9 10 10 9 8 7 7 8 10 10 12 19 22 17 14 14 14 12 10 9 8 7 8 8 7
11 9 10 12 11 10 7 5 4 4 5 5 4 4 4 4 2 0 2 5 5 4 3 3 3 3 4 5 6 6 7 7 8 7 7 8 9 9 9 9 9 9 9 7 7 9 10 11 12 17 20 17 14 13 13 12 10 8 8 8 9 10 10
10 9 10 11 10 9 6 4 3 3 5 5 5 6 6 5 2 1 2 4 4 4 4 3 3 3 4 6 6 6 7 8 8 7 8 9 9 9 9 9 10 10 10 8 7 8 10 11 11 15 17 16 15 15 13 12 10 7 7 9 11 11 11
11 10 10 10 9 8 6 4 2 3 4 4 5 6 7 6 3 1 2 3 3 2 2 2 2 3 5 6 5 5 6 7 7 7 8 9 9 9 9 9 10 11 10 9 7 8 10 11 10 13 14 10 10 16 16 13 11 9 8 10 12 12 12
11 10 10 9 9 9 8 5 3 3 4 4 5 6 7 7 3 1 2 3 3 2 2 2 2 3 5 7 7 6 5 5 6 6 7 8 9 9 8 8 9 11 10 10 9 8 10 11 10 12 12 6 4 11 19 17 13 11 10 11 11 11 11
11 10 9 7 7 9 8 6 3 3 3 3 4 5 6 6 3 0 2 2 2 2 2 1 1 3 5 8 7 6 5 5 5 6 6 7 7 8 8 8 9 11 11 11 10 9 9 10 11 11 10 5 3 6 13 17 15 12 11 11 11 10 9
13 11 9 7 7 8 8 5 3 3 3 2 3 4 5 5 2 1 3 3 2 2 2 1 1 3 5 6 6 5 5 5 5 6 5 5 5 5 6 8 9 11 12 11 11 10 10 11 11 11 10 6 3 4 8 14 15 13 12 11 10 9 9
14 12 9 7 8 9 8 4 3 3 2 1 2 4 4 4 1 2 4 4 3 3 3 2 0 3 4 4 4 4 4 5 5 5 4 3 3 3 3 5 8 11 12 12 11 11 12 12 10 10 10 8 5 6 9 11 11 11 12 10 9 9 9
15 13 10 9 10 10 8 4 3 2 1 0 2 3 3 2 1 3 4 4 3 4 4 2 0 3 3 3 3 4 4 5 4 4 3 2 2 2 1 2 7 10 11 12 12 12 12 12 11 11 11 9 7 7 8 7 7 8 11 11 11 11 9
15 13 11 10 10 10 7 4 3 1 0 1 2 3 2 2 3 4 4 3 3 4 4 2 2 5 4 2 2 3 4 4 4 2 2 2 0 1 2 1 5 8 11 11 12 12 12 12 11 11 10 9 8 8 8 7 6 6 7 9 10 11 10
15 14 12 10 10 10 7 4 2 0 1 2 2 2 2 3 3 4 4 4 4 4 5 3 4 7 6 4 3 2 3 4 3 1 1 2 1 1 2 1 3 7 11 12 12 11 12 12 11 10 9 8 9 9 10 10 9 8 6 6 8 10 10
17 16 13 11 11 10 7 4 2 1 2 2 1 1 2 3 4 4 4 4 4 4 4 3 4 8 8 6 4 3 3 3 3 2 1 2 1 1 1 2 4 8 11 13 12 11 11 11 10 9 9 10 10 11 12 13 13 12 10 8 7 8 10
17 16 14 12 11 9 7 5 3 2 1 1 0 0 2 3 3 3 2 2 2 3 3 2 3 6 8 8 6 5 4 4 4 4 3 3 2 1 2 3 5 9 11 11 11 10 10 9 9 10 11 12 13 13 14 15 15 15 14 12 9 9 11
18 17 14 13 12 10 8 6 4 3 3 2 2 3 5 7 7 7 7 6 3 1 1 2 3 4 6 7 7 7 6 6 7 7 7 6 5 4 3 3 5 7 9 9 9 9 8 8 8 9 10 11 13 15 16 17 17 17 17 16 13 12 13
18 17 16 16 15 12 9 7 5 4 4 5 5 4 6 6 6 7 8 8 7 5 4 2 2 3 5 5 6 6 6 7 9 9 9 9 8 7 7 7 7 7 7 7 7 8 7 8 8 10 10 11 12 14 16 18 19 19 19 18 16 14 14
18 18 17 16 14 12 10 8 6 4 5 7 7 6 5 5 4 5 5 5 5 5 5 4 3 0 3 4 4 4 4 6 9 10 9 8 7 7 9 11 11 10 9 9 9 9 9 9 10 10 10 10 10 11 13 15 17 18 19 19 18 16 15
17 17 15 12 12 14 13 11 9 7 6 7 8 7 5 4 4 3 3 2 2 3 4 4 5 4 2 3 4 4 4 5 7 8 7 7 7 7 9 11 12 12 12 12 12 12 10 10 10 9 9 9 9 9 10 12 14 15 17 19 20 19 18
18 15 13 13 15 16 15 14 14 12 9 9 8 7 6 5 5 4 3 1 1 2 2 3 4 5 5 4 3 3 5 5 6 7 7 7 8 9 9 10 11 12 12 12 12 12 12 11 11 11 11 11 10 10 11 12 13 15 17 19 20 21 20
19 17 15 16 17 17 15 15 15 13 11 11 10 9 8 7 6 5 4 3 2 2 2 2 3 4 5 5 4 3 3 5 6 7 7 7 8 8 9 10 10 12 13 13 13 13 13 13 13 13 14 14 13 14 14 14 15 16 18 19 20 20 21
16 16 16 17 17 17 16 15 16 15 13 12 11 10 9 8 7 7 6 5 5 4 4 4 3 3 4 5 5 5 5 5 6 6 7 8 8 9 10 11 12 13 14 15 15 16 16 16 16 17 17 17 17 17 17 18 18 19 20 20 20 21 21
14 14 15 17 17 17 17 16 16 16 14 14 14 12 11 10 9 9 8 7 7 7 7 6 6 6 6 6 6 7 8 8 8 8 8 8 9 10 11 12 13 14 15 16 17 18 18 19 19 19 20 20 20 20 20 20 20 21 21 21 22 22 22
15 15 15 16 15 16 17 17 16 15 15 15 15 14 13 13 12 12 11 9 8 9 9 9 9 9 9 9 8 9 10 11 12 12 11 11 11 11 11 11 12 13 14 15 16 17 18 19 19 20 20 20 20 21 21 21 21 22 23 24 25 26 25
16 15 14 13 13 13 14 14 14 14 14 15 15 15 14 14 14 13 13 11 10 10 11 11 12 12 12 12 12 12 12 13 14 14 15 15 15 15 15 15 15 15 15 15 16 17 18 19 20 20 21 21 21 21 22 22 22 23 24 25 27 28 28
15 14 12 11 11 10 10 10 10 11 11 12 13 13 14 13 13 12 12 12 12 12 12 12 13 14 15 15 15 16 16 16 16 17 17 17 18 19 19 20 20 20 20 20 20 20 21 22 23 23 23 23 23 23 23 24 24 25 26 27 28 29 30
14 13 11 9 9 8 7 7 7 7 8 8 8 10 11 11 11 11 11 11 11 12 14 15 15 17 17 18 19 19 20 20 21 21 21 21 21 22 21 22 22 23 23 23 24 25 26 28 28 28 28 27 27 27 26 26 27 28 29 30 31 32 31
11 10 8 7 7 5 5 4 4 4 5 5 6 6 7 8 9 10 10 11 11 12 13 14 16 17 19 19 20 21 22 23 24 24 25 26 26 26 26 26 26 26 26 25 25 26 28 29 30 30 30 31 31 31 29 29 30 30 31 32 35 36 33
5 5 4 4 3 1 1 1 2 3 4 5 6 7 7 8 9 10 11 12 13 13 14 14 15 16 18 19 20 21 22 23 23 24 25 27 27 28 28 28 28 28 29 28 27 27 28 28 29 29 30 31 31 30 29 29 31 31 32 33 36 37 34
2 2 2 3 4 5 6 7 7 8 9 9 10 11 12 13 13 14 14 15 16 17 17 18 18 19 19 20 21 22 22 23 24 25 25 26 26 27 27 27 27 27 27 28 27 27 27 27 26 27 28 29 30 28 27 27 28 28 30 31 33 34 33
6 5 6 7 8 10 12 13 13 13 14 14 15 16 17 18 19 19 20 20 21 21 22 23 23 24 25 25 26 26 26 27 28 29 29 29 29 29 28 27 26 26 25 26 26 25 24 24 23 24 25 26 26 26 25 25 24 25 27 29 29 31 32
8 8 8 9 9 11 14 15 16 17 17 18 19 19 20 21 22 22 23 23 24 25 26 27 28 28 29 30 30 31 32 32 33 34 35 35 35 34 33 32 31 29 27 26 26 26 24 23 23 24 24 23 23 24 25 24 23 23 25 27 27 28 29
11 11 11 12 12 12 14 15 16 17 18 20 20 21 22 23 24 24 24 24 24 25 26 27 28 29 30 31 31 33 34 35 35 37 38 39 39 39 39 38 36 34 32 30 29 28 27 26 26 26 25 23 23 24 25 26 25 25 25 25 25 26 28
11 12 12 13 14 14 15 16 17 18 19 20 21 21 22 23 25 26 26 26 26 26 27 27 27 28 29 30 30 31 33 34 35 36 37 38 39 40 40 40 40 39 37 35 33 32 32 31 29 28 25 23 23 24 25 27 27 26 26 26 26 27 28
Wind_Direction
177 169 162 159 157 158 159 163 169 168 165 161 160 174 189 193 188 183 186 185 189 195 199 205 205 202 200 199 200 202 205 206 206 204 199 196 203 207 203 204 210 216 225 221 208 195 160 140 135 137 135 135 134 127 122 121 118 118 123 125 118 110 106
171 167 162 158 157 158 161 167 170 165 157 147 138 141 163 187 192 193 193 188 189 193 198 207 208 206 205 204 204 208 211 207 203 203 204 200 201 214 217 214 218 222 224 206 199 214 187 154 146 146 142 140 138 127 119 114 111 111 114 118 118 114 111
169 168 164 159 158 159 162 164 161 157 145 126 109 107 124 163 191 200 200 195 193 192 194 200 203 202 204 208 209 211 214 211 209 210 210 204 198 205 218 222 222 218 214 202 196 200 197 178 162 154 147 145 140 127 119 116 113 114 114 115 116 112 108
171 170 167 163 161 158 160 159 155 152 135 109 92 97 116 143 180 201 207 205 201 196 192 193 199 207 208 209 208 209 213 217 220 220 218 213 206 204 209 217 222 220 218 220 214 201 196 191 170 155 151 149 142 132 125 119 113 118 121 123 123 115 108
172 169 169 165 160 155 157 158 152 142 126 108 92 84 94 118 153 185 203 209 209 205 198 198 207 217 219 215 212 214 216 219 221 223 221 218 217 216 210 209 216 223 226 234 236 215 203 203 178 158 154 155 149 141 134 126 120 121 122 127 132 126 116
169 166 170 167 158 153 152 144 133 122 108 95 81 63 35 27 71 163 187 197 200 201 201 210 224 229 229 223 217 220 223 223 222 223 223 218 219 224 217 209 211 218 220 220 230 226 209 205 191 165 156 158 160 152 144 137 132 129 125 125 130 128 122
165 166 176 173 158 149 142 127 118 108 90 77 63 46 23 0 339 27 166 179 186 202 215 232 249 243 229 216 209 215 221 223 223 223 222 217 214 217 214 207 205 207 206 202 215 226 212 203 198 178 162 159 166 161 151 147 146 139 130 127 128 128 123
167 175 182 175 158 145 140 137 133 105 84 71 53 36 20 4 359 85 151 172 183 203 216 236 256 245 220 207 203 212 217 218 221 225 227 222 213 208 207 203 199 196 196 196 205 219 217 211 206 192 176 165 166 167 162 159 156 147 136 135 135 130 127
176 185 184 173 161 151 148 157 152 114 92 68 45 27 14 9 20 103 148 171 188 212 232 251 264 246 221 209 209 220 224 223 223 224 226 224 217 209 207 205 198 195 195 196 200 208 213 217 215 202 195 190 180 175 172 171 167 160 149 143 140 135 133
181 190 185 173 170 164 163 173 157 114 95 66 39 19 9 8 20 107 155 176 198 225 260 278 282 252 223 212 215 225 230 229 226 226 226 222 219 217 215 211 202 197 195 191 192 198 203 211 215 207 208 236 249 192 178 172 170 165 157 152 149 142 141
185 191 185 179 185 178 172 174 151 109 85 63 36 15 2 1 12 107 200 218 223 227 248 265 268 241 216 210 216 221 224 225 223 225 225 220 222 223 219 218 211 200 192 188 189 192 192 197 204 211 218 233 278 232 189 169 162 162 159 159 157 151 149
188 189 186 190 198 186 177 171 143 105 78 55 27 8 354 352 6 189 221 247 247 223 233 261 233 208 200 205 209 203 202 208 208 209 216 224 233 237 228 222 216 203 193 191 192 189 184 186 196 211 222 216 213 233 189 161 155 159 162 164 163 159 159
189 189 189 191 189 181 176 167 136 107 82 52 16 2 348 342 321 201 216 235 232 213 233 280 231 183 183 190 187 170 173 187 193 191 202 236 257 270 256 224 211 202 195 192 192 189 183 186 201 214 219 215 194 177 167 154 148 153 158 164 171 172 169
191 193 193 186 178 177 176 165 138 115 103 56 355 348 337 318 246 214 217 227 215 202 228 275 220 172 171 174 170 158 161 174 185 186 195 236 274 314 316 214 201 197 192 188 189 189 188 193 207 214 215 215 201 181 175 170 161 161 164 169 176 183 184
193 197 196 185 178 179 178 166 147 125 115 308 332 330 302 248 226 219 219 229 217 209 229 260 200 180 175 178 186 176 172 176 176 180 200 215 234 24 36 137 191 190 184 182 182 187 193 199 204 206 208 213 214 210 207 204 197 192 190 185 185 191 193
199 201 198 189 183 182 181 176 171 195 288 302 323 309 255 221 215 216 218 226 226 226 244 254 200 189 186 187 198 204 200 189 171 152 206 199 159 70 52 105 176 179 175 174 175 182 189 193 197 200 202 208 217 226 229 228 224 220 220 216 210 209 204
203 202 200 192 184 182 185 189 189 239 270 287 317 294 244 215 212 218 221 226 232 239 252 247 203 196 195 192 196 207 215 209 195 196 234 227 192 142 110 142 172 171 168 168 170 178 187 193 201 211 217 221 228 235 240 241 239 234 233 237 241 233 217
201 203 202 192 183 184 189 186 179 192 222 239 1 99 143 148 151 146 151 187 216 233 243 226 193 196 200 200 201 207 214 212 204 208 221 230 237 222 155 157 170 168 167 170 174 181 191 199 207 216 226 235 240 243 246 248 248 245 241 243 253 248 227
200 204 203 192 183 182 180 177 178 180 158 143 129 121 126 125 116 101 87 82 97 129 201 195 179 185 197 206 212 217 219 212 206 210 217 222 230 231 211 188 181 177 175 176 179 186 192 200 213 229 241 245 246 245 244 246 248 250 249 248 253 252 237
201 204 202 193 186 183 177 172 173 168 157 160 160 138 123 116 107 99 88 79 81 82 77 93 165 193 207 215 224 232 232 219 209 211 220 229 232 226 214 207 203 200 198 197 198 207 219 232 246 255 258 256 253 250 247 247 249 252 253 250 249 250 242
204 207 203 194 192 198 200 193 182 169 171 181 179 161 136 121 112 108 99 86 78 73 68 60 50 272 236 234 235 249 254 234 218 213 219 229 231 222 211 210 211 216 223 228 230 235 247 259 263 262 261 260 258 253 251 250 250 251 253 251 250 251 248
206 209 206 205 214 218 217 223 227 216 201 201 196 183 166 156 152 142 121 94 60 52 50 39 29 19 342 265 247 252 262 250 223 209 211 220 221 217 213 213 217 223 230 236 239 242 248 255 259 264 269 270 266 259 254 250 247 247 247 248 250 253 250
205 210 212 220 226 221 215 221 227 218 208 212 208 199 196 191 184 182 175 173 344 4 19 14 5 1 359 343 295 261 255 253 233 214 213 219 219 221 222 224 228 232 236 240 242 244 245 246 252 261 267 270 270 267 263 258 253 250 248 250 253 254 252
202 208 211 212 214 214 211 211 211 206 206 213 214 213 218 218 208 201 198 209 242 276 308 330 337 334 332 330 326 311 273 257 251 244 241 237 235 235 238 241 243 244 246 248 250 252 252 251 254 258 262 265 267 266 265 264 261 257 255 255 256 255 254
201 205 206 206 206 208 208 208 207 206 206 211 216 220 228 232 229 223 220 225 236 245 251 256 265 280 285 285 290 295 292 277 268 266 265 264 263 262 260 261 260 258 256 256 257 260 261 261 260 260 261 263 264 265 264 264 264 263 261 260 259 257 257
190 190 196 202 205 207 209 209 209 208 208 214 220 223 229 236 238 237 238 240 245 249 250 250 253 253 251 252 255 263 271 274 274 273 273 274 275 273 272 271 268 267 267 265 265 266 267 269 268 267 268 269 270 270 268 266 266 265 264 263 262 261 261
172 176 183 192 198 202 205 206 206 208 211 216 221 225 232 236 238 240 243 245 247 250 251 251 254 257 256 252 248 249 253 258 262 266 268 269 271 272 272 271 270 269 269 270 271 270 271 273 275 275 277 278 279 278 275 273 271 268 265 263 262 262 263
149 157 165 178 188 192 196 201 205 209 213 218 222 227 232 236 238 239 240 243 247 250 252 254 257 260 262 261 259 256 254 253 254 256 258 260 263 265 267 268 269 268 268 270 271 272 274 276 278 279 281 283 283 283 281 281 279 276 271 266 263 263 264
125 129 136 151 167 174 180 189 199 206 213 222 227 231 235 238 240 241 240 243 250 257 261 264 265 266 268 269 268 267 265 264 262 260 259 258 259 260 262 264 266 267 268 269 270 271 274 275 276 278 279 281 283 283 283 283 282 281 278 274 270 267 265
111 111 115 124 133 141 150 161 177 190 203 216 224 232 239 244 247 250 251 253 259 266 271 273 273 274 274 273 273 273 273 272 272 272 270 268 267 266 264 264 265 266 267 267 268 270 271 273 275 276 277 279 280 280 280 280 279 280 280 280 279 274 268
110 113 118 121 121 123 130 145 165 182 198 214 223 233 243 249 254 258 262 264 265 267 269 271 272 272 273 273 273 273 274 274 274 274 274 273 272 271 270 269 268 268 268 268 268 269 270 271 272 273 274 275 274 273 274 275 276 276 277 279 278 274 267
104 117 122 119 117 128 202 246 255 258 258 257 259 261 262 264 265 267 270 272 272 271 270 271 272 272 272 272 272 271 271 272 271 271 271 271 270 270 270 271 271 272 273 272 271 271 272 272 271 271 272 273 273 274 274 275 276 276 276 276 276 274 273
350 318 298 303 307 306 304 299 291 286 281 277 275 274 274 274 274 275 275 275 275 275 274 275 276 277 277 276 276 275 275 274 273 272 270 270 270 269 269 270 271 271 272 272 271 271 272 274 274 274 274 275 278 280 280 279 280 281 281 278 277 277 280
325 314 298 292 291 293 298 299 296 292 289 286 282 280 279 279 279 279 279 279 278 278 278 278 279 280 281 282 281 280 280 280 280 279 278 277 276 275 274 273 271 269 268 268 266 264 265 269 272 273 273 275 279 281 281 281 282 284 285 283 281 281 280
332 326 318 310 300 295 296 298 296 294 293 291 290 289 287 285 284 283 282 282 281 280 279 279 279 280 281 283 283 282 282 281 281 281 281 280 280 279 278 277 275 273 270 268 265 262 260 261 263 266 269 273 277 279 280 279 278 278 280 282 284 283 278
343 339 335 330 323 317 311 307 304 301 299 297 297 296 294 293 291 290 288 287 286 284 282 281 280 280 280 281 281 281 281 280 279 279 279 279 279 278 277 277 276 274 272 270 267 265 262 260 261 263 267 270 274 276 275 274 273 271 270 274 279 281 276
340 338 335 330 325 320 316 311 309 306 304 302 301 299 298 296 294 292 291 289 287 286 285 284 283 282 281 281 280 279 279 279 279 278 277 277 277 277 277 276 275 273 272 270 268 266 264 263 262 263 267 270 271 271 272 272 272 269 265 265 267 270 270